RH
73 73 73 75 77 78 79 79 80 81 80 78 78 78 79 81 67 12 16 36 42 65 70 21 19 19 18 15 16 13 12 8 6 6 6 7 8 7 8 8 8 16 20 28 43
74 74 74 75 77 79 80 80 81 80 79 78 78 78 80 82 27 14 39 58 58 61 20 16 14 16 14 14 14 15 11 9 6 6 6 5 4 7 8 8 14 13 13 32 41
76 76 76 77 78 79 82 82 82 80 79 78 77 77 80 60 16 16 49 55 50 40 17 20 18 14 14 11 13 13 13 9 7 8 7 6 6 6 7 8 6 8 7 11 35
78 78 77 78 78 79 84 86 82 80 79 77 75 77 72 29 20 15 47 47 43 13 12 15 15 16 16 13 10 14 11 11 10 8 9 9 7 8 8 8 6 5 5 16 35
79 79 78 78 78 80 84 85 82 79 77 75 75 73 34 18 21 12 37 22 7 9 10 12 15 14 15 12 12 13 11 10 10 10 10 9 9 9 9 8 6 6 6 7 20
79 80 80 80 80 81 84 84 80 78 79 79 78 68 13 20 14 10 8 8 10 12 11 11 13 14 16 14 14 10 11 10 9 10 11 12 10 9 8 7 7 7 7 7 7
80 84 84 82 83 82 82 82 74 77 79 77 76 17 14 17 12 8 8 9 12 14 17 13 14 16 16 18 13 15 17 12 11 11 12 10 10 9 6 6 7 6 6 6 6
80 84 85 86 87 84 80 77 72 75 76 73 68 16 18 9 10 8 8 9 11 10 18 19 18 18 15 15 15 16 16 16 10 9 9 12 9 4 4 5 6 6 6 6 5
80 84 85 87 87 84 77 72 75 72 65 49 18 13 13 16 12 9 9 12 13 10 15 19 21 19 17 17 14 13 15 13 10 9 10 11 10 5 6 6 6 6 5 5 6
79 83 85 85 86 81 75 68 60 46 26 14 8 14 11 14 13 10 10 12 14 11 17 18 19 17 19 22 21 26 22 19 19 12 14 14 11 8 7 6 8 7 7 7 6
80 82 84 84 85 77 51 27 23 20 15 16 15 15 12 11 11 12 11 13 10 10 16 24 15 19 22 25 24 26 26 23 17 14 18 20 18 13 11 10 11 10 8 6 8
82 85 83 81 75 68 36 40 48 25 21 14 14 13 11 13 12 13 11 16 14 13 10 11 24 18 24 29 33 30 28 25 20 17 22 20 18 12 10 10 10 10 9 8 8
84 85 83 80 63 46 41 45 38 44 20 17 14 16 14 13 14 16 15 16 13 13 13 13 16 21 25 33 39 27 32 34 34 30 26 27 26 20 15 13 11 10 9 9 9
86 85 82 75 41 32 40 41 43 52 21 20 16 16 14 13 15 12 15 19 14 18 14 11 13 20 22 30 24 36 30 36 38 39 35 18 25 15 10 9 9 10 11 9 9
86 84 76 64 35 29 40 48 54 59 43 18 16 13 13 18 16 15 15 17 22 20 16 15 16 20 23 29 25 37 33 36 36 38 37 31 32 20 13 12 10 9 9 10 9
84 82 70 39 36 38 47 56 50 43 45 22 17 20 20 18 17 16 18 16 19 20 14 16 13 28 29 25 24 30 31 30 31 35 52 32 28 21 14 13 10 8 8 8 8
81 74 44 37 46 43 58 42 38 85 19 22 24 22 21 26 20 19 23 28 29 29 21 17 15 16 22 43 26 37 38 34 29 48 43 20 23 22 17 12 10 11 12 17 22
79 61 54 38 44 49 40 24 80 28 27 20 21 22 32 28 24 22 22 26 29 27 28 29 26 34 24 49 68 46 56 69 71 36 33 24 32 42 45 43 43 45 35 25 33
70 42 35 51 55 47 27 87 42 29 26 27 21 28 28 28 30 26 26 30 36 35 45 40 37 20 22 26 42 46 50 45 91 46 50 30 28 39 40 48 52 54 52 48 45
31 30 31 56 60 38 31 48 36 31 28 26 31 30 36 35 39 36 33 38 41 31 29 29 42 24 22 20 42 34 34 64 53 76 66 41 81 79 65 72 64 69 65 62 63
39 23 39 54 43 29 75 38 37 31 28 34 34 35 34 39 38 41 38 36 36 34 26 30 31 29 23 41 52 37 40 56 66 74 75 72 88 98 91 94 85 84 82 75 73
38 52 38 50 42 38 64 41 41 33 33 31 38 42 45 39 37 41 40 35 31 32 48 36 41 43 33 30 34 30 48 56 79 54 69 76 91 91 96 95 90 95 93 88 75
28 30 31 39 95 90 40 45 43 39 44 40 44 42 38 38 42 36 35 30 28 33 43 59 51 54 30 31 31 35 36 59 65 88 92 72 79 81 75 91 94 96 96 94 80
33 93 44 36 35 36 38 42 41 39 43 42 44 35 38 37 33 37 35 30 27 28 47 48 53 60 64 58 44 48 64 58 76 78 85 80 82 87 89 96 95 96 96 96 94
42 74 52 93 74 42 40 44 42 45 41 39 39 38 40 44 39 34 34 31 29 40 50 43 53 43 35 32 36 78 83 78 86 91 86 88 88 94 96 98 98 98 97 96 94
79 64 38 43 46 40 46 47 46 46 46 42 44 42 36 42 40 49 40 32 63 29 23 24 33 27 32 30 57 60 59 66 79 89 79 69 81 93 85 94 94 96 97 97 96
48 51 48 51 40 45 52 49 49 46 45 39 45 40 34 36 43 42 36 38 53 37 26 27 24 27 37 32 40 67 88 82 64 82 88 87 96 88 87 93 97 97 96 99 98
Wind_Speed
19 19 18 17 17 17 17 16 15 12 9 9 8 8 10 13 11 27 24 16 14 18 15 2 4 5 8 10 10 10 11 15 21 18 14 5 8 3 6 14 14 10 9 7 8
19 19 18 18 17 17 16 16 14 11 7 6 6 5 6 7 4 26 20 24 21 17 12 7 2 6 9 10 8 13 14 21 16 12 17 16 14 11 11 13 13 16 14 2 9
19 19 19 18 18 17 17 15 13 9 6 3 3 2 4 7 4 14 24 24 23 18 10 7 5 7 10 10 13 12 22 17 16 14 17 18 19 13 17 20 20 15 14 6 11
20 19 19 19 19 18 16 14 12 8 5 3 1 1 4 7 4 16 21 21 21 14 11 9 8 10 9 12 13 16 18 17 20 16 15 19 20 22 19 24 22 18 12 9 12
21 21 21 20 19 18 15 12 8 5 4 3 2 3 6 10 8 18 22 22 15 15 9 10 12 11 15 9 12 20 19 18 18 17 17 19 24 26 29 21 22 21 20 17 16
20 19 20 20 19 19 16 12 8 7 6 6 7 8 11 14 10 18 23 21 15 13 10 10 8 10 14 17 18 13 13 17 16 16 18 18 23 22 27 13 22 24 25 21 21
22 21 22 22 20 18 15 11 7 7 5 6 9 6 26 14 8 18 22 14 12 12 10 8 7 9 6 13 12 15 20 19 20 21 19 18 27 34 26 24 23 21 20 23 23
23 21 21 21 20 18 13 9 5 6 6 4 6 5 8 13 12 23 24 14 13 15 7 7 5 10 13 13 18 21 20 20 13 5 12 13 25 21 8 12 22 21 20 21 23
23 20 19 18 17 14 14 3 3 4 7 4 4 3 7 10 22 23 24 14 16 13 8 1 6 4 5 12 15 15 19 17 15 8 12 14 25 14 1 5 10 16 19 16 18
22 20 18 17 16 13 5 2 1 3 2 3 15 2 14 16 12 23 28 7 10 16 6 5 3 6 8 9 12 16 18 17 18 5 8 19 26 20 20 21 14 16 15 15 17
24 21 19 17 14 12 3 4 5 7 19 15 11 11 13 14 3 23 27 6 12 12 9 5 7 9 13 13 17 19 21 26 22 20 22 22 26 24 21 20 17 21 20 18 18
24 22 19 16 9 13 4 5 5 4 12 10 9 11 15 8 13 25 28 11 12 16 13 3 8 13 12 12 12 16 22 25 20 15 12 18 25 24 24 28 25 24 22 23 20
23 21 20 16 0 5 12 8 6 5 3 9 9 17 20 8 16 24 28 11 13 15 14 9 9 11 12 8 16 19 20 20 19 18 22 23 28 27 30 29 27 25 28 25 25
20 19 19 15 2 4 6 9 1 3 4 11 12 10 16 1 6 18 22 8 12 11 12 5 9 10 13 10 19 17 14 20 20 17 16 13 19 19 15 16 20 26 26 27 26
19 18 11 15 4 4 8 6 3 4 3 11 7 8 14 15 10 20 20 7 12 11 12 11 10 11 15 12 22 16 20 24 25 21 20 23 15 16 17 18 21 21 24 27 27
19 17 16 3 4 7 6 2 4 5 6 4 6 14 16 17 10 15 14 15 4 6 6 13 3 3 10 19 19 16 24 25 23 17 14 27 18 16 16 21 21 19 18 23 24
16 10 9 5 8 10 3 4 3 7 5 10 10 12 11 18 10 19 14 19 16 12 18 11 3 10 10 21 14 23 20 9 8 9 14 11 12 17 17 18 19 12 16 12 19
12 3 5 12 9 4 4 3 12 3 7 8 14 8 9 18 10 18 13 11 14 17 14 12 5 12 17 11 11 14 12 8 10 10 14 18 8 9 26 28 27 25 23 12 14
8 1 8 15 10 3 4 9 5 6 7 11 11 5 6 10 11 13 11 9 9 16 16 13 9 24 11 15 6 11 14 18 9 19 15 10 12 22 29 26 27 26 23 20 18
1 1 12 20 9 4 7 7 5 6 8 8 8 4 11 14 12 15 9 6 10 13 14 12 20 12 9 13 6 12 10 9 6 8 9 7 10 14 29 29 28 27 25 24 21
3 2 13 18 7 7 7 7 5 6 8 8 7 7 8 14 16 9 6 5 13 15 21 19 11 10 21 12 14 9 9 6 8 8 6 8 7 15 22 19 27 26 24 22 22
2 5 13 13 7 5 7 4 3 8 6 5 2 5 9 16 9 5 8 9 20 23 24 8 9 13 20 13 3 9 10 9 8 7 7 8 6 19 22 19 23 25 20 20 19
4 4 9 8 6 7 10 6 5 9 8 7 6 7 11 11 9 6 8 14 18 20 13 9 6 13 12 7 4 18 18 16 16 13 5 6 8 20 24 21 21 24 21 17 21
2 3 6 8 7 8 6 9 7 7 4 5 3 8 14 13 5 10 14 17 20 19 17 14 13 15 13 17 16 14 11 18 17 6 9 12 14 25 27 25 26 24 25 23 20
5 4 2 4 7 9 8 4 10 7 5 7 2 12 14 9 13 6 21 21 16 17 10 10 14 16 17 18 15 15 13 16 18 15 11 14 14 23 23 20 24 20 27 25 24
4 2 3 6 4 6 4 9 10 10 4 7 10 12 11 9 13 22 22 17 7 12 16 16 13 18 18 15 16 17 20 15 18 17 14 14 13 22 21 17 24 27 28 25 25
4 3 2 2 6 3 6 8 7 9 3 7 9 10 9 15 18 17 16 9 2 12 16 15 14 14 16 11 5 12 18 16 16 18 19 19 20 22 25 21 22 25 24 23 25
Wind_Direction
5 1 357 353 346 338 331 333 332 332 329 321 330 339 332 331 308 46 33 345 326 327 301 311 190 172 191 216 231 244 246 246 251 258 271 191 265 191 277 269 247 234 273 9 132
1 357 353 348 341 335 332 336 333 331 324 317 317 326 320 318 319 40 0 344 340 334 331 339 337 200 216 229 209 226 234 251 278 282 277 282 278 285 280 265 245 244 235 150 173
358 354 352 346 341 336 338 336 332 332 321 323 291 279 291 271 69 13 353 334 335 319 295 285 260 252 246 233 221 230 248 276 260 262 275 281 279 268 267 258 253 251 261 222 213
355 352 351 346 343 342 344 340 339 350 349 350 339 282 225 220 33 351 337 323 323 314 286 260 250 250 247 232 230 254 251 256 269 267 270 273 284 274 260 259 270 278 282 287 217
355 353 349 347 342 346 350 344 356 23 55 52 359 262 222 69 32 345 336 337 330 332 294 277 270 267 257 262 260 250 259 260 262 258 264 274 268 271 263 259 266 267 267 253 231
352 349 347 348 346 350 353 355 13 44 45 12 347 274 80 63 354 350 342 338 348 334 317 282 269 310 287 262 253 277 271 264 257 256 255 259 266 268 257 259 252 255 254 250 249
352 351 348 348 344 347 350 357 15 43 37 27 347 36 60 23 2 354 350 345 350 343 303 300 285 273 313 262 268 279 272 265 255 253 242 250 259 249 259 247 256 254 247 245 243
353 350 347 345 341 344 358 3 347 27 8 352 299 66 79 43 356 1 352 347 352 340 278 290 262 254 258 275 278 267 265 266 264 271 229 224 254 255 327 254 238 254 250 246 241
352 349 347 342 337 340 336 348 3 3 346 25 28 34 47 2 11 359 353 348 340 359 36 107 227 283 230 263 268 233 263 270 269 239 252 228 265 287 216 321 262 255 261 245 249
349 347 348 343 336 336 328 245 10 341 301 223 26 141 21 348 350 357 351 334 350 348 183 26 207 254 22 334 286 322 302 293 282 262 290 284 271 266 272 274 269 280 278 271 255
348 346 348 343 340 347 238 208 205 49 50 60 53 61 354 354 293 4 349 336 345 37 26 34 71 25 338 316 295 288 280 277 278 281 278 269 272 274 277 272 259 263 264 264 261
347 343 344 340 351 350 36 61 42 62 85 52 37 29 13 342 359 11 357 19 360 25 358 170 56 360 328 317 316 297 282 278 290 281 269 271 267 261 255 258 259 262 261 259 259
347 343 344 345 289 30 65 40 311 240 103 43 39 21 6 328 29 9 6 342 359 10 13 31 25 341 330 317 332 321 297 288 294 312 284 270 268 260 255 256 258 256 255 254 254
350 347 348 336 238 0 59 348 354 221 187 13 9 28 354 333 30 18 5 349 10 352 354 44 350 343 333 335 339 311 326 314 295 292 275 284 279 270 282 264 247 240 247 245 247
354 346 5 16 354 35 337 328 160 236 248 357 13 311 353 34 328 10 10 358 16 349 340 13 327 334 337 337 325 307 309 289 283 268 269 263 254 271 269 255 255 253 244 249 246
352 347 332 46 53 13 329 235 237 232 51 11 347 348 357 6 11 355 4 17 296 315 338 343 295 313 349 332 316 321 310 282 251 249 257 254 253 270 257 261 261 266 260 251 248
348 357 37 33 341 328 280 228 226 48 345 354 342 339 342 352 352 3 359 35 27 350 345 339 40 10 7 340 332 335 342 318 240 185 248 270 237 256 279 279 287 311 306 327 316
339 325 57 34 344 281 237 218 61 26 8 336 332 329 6 6 348 349 355 16 34 7 324 343 317 14 333 336 311 316 341 328 305 314 315 310 244 48 13 8 3 349 332 310 303
312 69 27 357 350 261 260 54 41 15 340 332 313 333 5 4 333 339 360 12 28 17 1 317 301 321 304 325 329 338 342 312 262 254 258 245 325 44 1 3 356 343 342 337 332
57 305 23 346 336 264 60 95 94 27 326 331 351 359 336 352 343 336 342 47 359 359 353 321 305 293 326 314 177 319 327 331 339 285 299 339 64 5 358 355 354 348 339 338 335
34 68 359 346 302 53 71 76 90 32 2 349 340 314 339 350 326 326 328 54 7 341 336 312 256 285 309 338 317 325 351 332 286 256 298 327 69 5 350 347 353 346 339 336 331
38 52 358 323 54 43 56 36 32 10 18 11 335 2 350 331 317 307 328 332 356 342 328 335 296 291 305 295 183 342 347 332 291 289 294 268 100 9 350 343 356 346 334 334 342
62 37 3 347 72 73 95 87 55 16 24 14 29 356 345 331 316 321 328 349 340 330 319 328 285 313 306 163 235 343 348 358 314 251 344 356 24 357 345 355 353 351 336 345 355
78 53 27 32 49 88 96 46 37 51 64 354 334 346 339 330 308 295 320 330 335 325 319 308 282 285 288 304 301 293 12 25 10 8 324 25 347 348 348 359 354 352 345 1 359
29 62 2 40 36 64 71 40 27 23 15 16 357 356 340 323 326 352 327 333 350 7 14 354 306 336 308 284 278 39 33 31 37 21 16 6 14 355 349 356 355 347 359 358 2
80 52 77 79 64 65 63 27 22 5 338 18 347 342 333 333 334 320 327 330 30 352 6 348 325 318 299 282 101 58 19 13 33 29 21 16 23 350 349 349 357 3 5 357 354
44 94 298 55 52 55 41 25 12 344 114 4 341 328 345 342 321 311 296 311 3 328 355 344 327 315 294 319 218 38 2 346 37 35 13 17 359 347 353 353 3 356 0 353 4